This is the latest recevied weather packets stored in our database for station/object OK1TOM-6. If no packets are shown the sender has not sent any weather packets the latest 10 day(s).
| Time | Temp. | Humidity | Pressure | Rain* | Wind** | Luminosity | Snow |
|---|---|---|---|---|---|---|---|
| 1777710930 | 17.78° C | 38% | 1027 hPa | 0 mm | - | - | - |
| 1777710326 | 18.33° C | 42% | 1027.1 hPa | 0 mm | - | - | - |
| 1777709723 | 17.78° C | 43% | 1027 hPa | 0 mm | - | - | - |
| 1777709119 | 17.22° C | 43% | 1027 hPa | 0 mm | - | - | - |
| 1777708516 | 17.22° C | 44% | 1027.1 hPa | 0 mm | - | - | - |
| 1777707973 | 16.67° C | 45% | 1027.1 hPa | 0 mm | - | - | - |
| 1777707369 | 16.11° C | 46% | 1027.2 hPa | 0 mm | - | - | - |
| 1777706766 | 16.11° C | 46% | 1027.2 hPa | 0 mm | - | - | - |
| 1777706162 | 15.56° C | 45% | 1027.2 hPa | 0 mm | - | - | - |
| 1777705559 | 15° C | 46% | 1027.2 hPa | 0 mm | - | - | - |
| 1777704955 | 15° C | 47% | 1027.3 hPa | 0 mm | - | - | - |
| 1777704352 | 15° C | 46% | 1027.3 hPa | 0 mm | - | - | - |
| 1777703748 | 15.56° C | 46% | 1027.3 hPa | 0 mm | - | - | - |
| 1777703145 | 15.56° C | 47% | 1027.2 hPa | 0 mm | - | - | - |
| 1777702542 | 15.56° C | 46% | 1027.2 hPa | 0 mm | - | - | - |
| 1777701938 | 13.33° C | 50% | 1027.2 hPa | 0 mm | - | - | - |
| 1777701335 | 12.78° C | 55% | 1027.2 hPa | 0 mm | - | - | - |
| 1777700731 | 12.22° C | 56% | 1027.2 hPa | 0 mm | - | - | - |
| 1777700128 | 10.56° C | 65% | 1027.1 hPa | 0 mm | - | - | - |
| 1777699525 | 10° C | 69% | 1027.2 hPa | 0 mm | - | - | - |
| 1777698921 | 8.89° C | 71% | 1027.2 hPa | 0 mm | - | - | - |
| 1777698318 | 6.67° C | 76% | 1027.1 hPa | 0 mm | - | - | - |
| 1777697774 | 6.67° C | 75% | 1027.1 hPa | 0 mm | - | - | - |
| 1777697171 | 6.11° C | 76% | 1027.1 hPa | 0 mm | - | - | - |
| 1777696568 | 5° C | 78% | 1027.1 hPa | 0 mm | - | - | - |
* Rain latest hour (hover to see other rain measurements)
** Current wind speed in m/s (hover to see current wind gust speed)